Hourly Data Report for September 18, 2017

All times are specified in Local Standard Time (LST). Add 1 hour to adjust for Daylight Saving Time where and when it is observed.

MIRAMICHI RCS
NEW BRUNSWICK

47°00'34.000" N
65°27'54.000" W
33.00 m
8100989
71744
ACQ

Download Data

Hourly Data (September 2017)
Hourly Data Report for September 18, 2017
Temp Definition
°C
Dew Point Temp Definition
°C
Rel Hum Definition
%
Wind Dir Definition
10's deg

Wind Spd Definition
km/h
Visibility Definition
km
Stn Press Definition
kPa
Hmdx Definition


Wind Chill Definition


Weather Definition


TIME
00:00 14.2 13.2 94 1 4   101.85     LegendNANA
01:00 13.5 13.1 97 1 6   101.85     LegendNANA
02:00 13.5 13.2 98 1 5   101.84     LegendNANA
03:00 13.8 13.5 98 3 5   101.81     LegendNANA
04:00 14.3 14.0 98 6 8   101.81     LegendNANA
05:00 14.4 14.0 98 7 13   101.86     LegendNANA
06:00 14.3 13.9 98 7 12   101.91     LegendNANA
07:00 14.3 14.0 98 7 12   101.94     LegendNANA
08:00 14.6 14.1 97 8 13   101.98     LegendNANA
09:00 14.7 14.1 97 9 14   102.01     LegendNANA
10:00 14.8 14.2 96 9 15   102.02     LegendNANA
11:00 15.2 14.5 96 10 13   102.01     LegendNANA
12:00 15.3 14.6 96 10 12   102.01     LegendNANA
13:00 15.2 14.6 96 7 10   101.99     LegendNANA
14:00 15.6 14.9 95 8 10   101.97     LegendNANA
15:00 15.6 15.0 96 6 8   101.97     LegendNANA
16:00 15.7 15.0 96 8 9   101.96     LegendNANA
17:00 15.6 15.1 97 7 7   101.98     LegendNANA
18:00 15.6 15.0 96 4 5   101.99     LegendNANA
19:00 15.5 15.1 98 4 5   102.01     LegendNANA
20:00 15.5 15.2 98 5 8   102.01     LegendNANA
21:00 15.4 15.2 99 10 4   102.04     LegendNANA
22:00 15.4 15.1 99 4 1   102.02     LegendNANA
23:00 15.3 15.1 99 5 4   101.98     LegendNANA

Notes on Data Quality.

Legend

  • E = Estimated
  • M = Missing
  • NA = Not Available
  • ‡ = Partner data that is not subject to review by the National Climate Archives
Date modified: